Time,TemperatureF,DewpointF,PressureIn,WindDirection,WindDirectionDegrees,WindSpeedMPH,WindSpeedGustMPH,Humidity,HourlyPrecipIn,Conditions,Clouds,dailyrainin,SoftwareType,DateUTC
2013-04-09 00:02:00,18.0,17.0,-100.00,WNW,286,7.0,18.0,92,-99.99,,,-99.99,,2013-04-09 06:02:00,
2013-04-09 00:12:00,17.0,15.0,-100.00,WNW,290,6.0,15.0,92,-99.99,,,-99.99,,2013-04-09 06:12:00,
2013-04-09 00:22:00,17.0,15.0,-100.00,WNW,290,6.0,15.0,92,-99.99,,,-99.99,,2013-04-09 06:22:00,
2013-04-09 00:32:00,17.0,15.0,-100.00,WNW,290,6.0,15.0,92,-99.99,,,-99.99,,2013-04-09 06:32:00,
2013-04-09 00:42:00,16.0,15.0,-100.00,WNW,282,4.0,15.0,92,-99.99,,,-99.99,,2013-04-09 06:42:00,
2013-04-09 00:52:00,16.0,15.0,-100.00,WNW,282,4.0,15.0,92,-99.99,,,-99.99,,2013-04-09 06:52:00,
2013-04-09 01:02:00,16.0,14.0,-100.00,WNW,284,5.0,16.0,92,-99.99,,,-99.99,,2013-04-09 07:02:00,
2013-04-09 01:12:00,16.0,14.0,-100.00,WNW,291,7.0,18.0,92,-99.99,,,-99.99,,2013-04-09 07:12:00,
2013-04-09 01:22:00,16.0,14.0,-100.00,WNW,291,7.0,18.0,92,-99.99,,,-99.99,,2013-04-09 07:22:00,
2013-04-09 01:32:00,16.0,14.0,-100.00,WNW,291,7.0,18.0,92,-99.99,,,-99.99,,2013-04-09 07:32:00,
2013-04-09 01:42:00,15.0,13.0,-100.00,WNW,296,7.0,16.0,91,-99.99,,,-99.99,,2013-04-09 07:42:00,
2013-04-09 01:52:00,15.0,13.0,-100.00,WNW,296,7.0,16.0,91,-99.99,,,-99.99,,2013-04-09 07:52:00,
2013-04-09 02:02:00,14.0,12.0,-100.00,WNW,302,7.0,17.0,91,-99.99,,,-99.99,,2013-04-09 08:02:00,
2013-04-09 02:12:00,14.0,12.0,-100.00,NW,307,8.0,16.0,91,-99.99,,,-99.99,,2013-04-09 08:12:00,
2013-04-09 02:22:00,14.0,12.0,-100.00,NW,307,8.0,16.0,91,-99.99,,,-99.99,,2013-04-09 08:22:00,
2013-04-09 02:32:00,14.0,12.0,-100.00,NW,307,8.0,16.0,91,-99.99,,,-99.99,,2013-04-09 08:32:00,
2013-04-09 02:42:00,13.0,11.0,-100.00,WNW,296,8.0,17.0,90,-99.99,,,-99.99,,2013-04-09 08:42:00,
2013-04-09 02:52:00,13.0,11.0,-100.00,WNW,296,8.0,17.0,90,-99.99,,,-99.99,,2013-04-09 08:52:00,
2013-04-09 03:02:00,13.0,10.0,-100.00,WNW,297,9.0,19.0,90,-99.99,,,-99.99,,2013-04-09 09:02:00,
2013-04-09 03:12:00,12.0,10.0,-100.00,WNW,299,7.0,17.0,90,-99.99,,,-99.99,,2013-04-09 09:12:00,
2013-04-09 03:22:00,12.0,10.0,-100.00,WNW,299,7.0,17.0,90,-99.99,,,-99.99,,2013-04-09 09:22:00,
2013-04-09 03:32:00,12.0,10.0,-100.00,WNW,299,7.0,17.0,90,-99.99,,,-99.99,,2013-04-09 09:32:00,
2013-04-09 03:43:00,12.0,9.0,-100.00,NW,315,6.0,14.0,90,-99.99,,,-99.99,,2013-04-09 09:43:00,
2013-04-09 03:52:00,12.0,9.0,-100.00,NW,315,6.0,14.0,90,-99.99,,,-99.99,,2013-04-09 09:52:00,
2013-04-09 04:03:00,11.0,9.0,-100.00,NW,313,8.0,21.0,90,-99.99,,,-99.99,,2013-04-09 10:03:00,
2013-04-09 04:12:00,11.0,9.0,-100.00,NW,312,7.0,19.0,90,-99.99,,,-99.99,,2013-04-09 10:12:00,
2013-04-09 04:23:00,11.0,9.0,-100.00,NW,312,7.0,19.0,90,-99.99,,,-99.99,,2013-04-09 10:23:00,
2013-04-09 04:32:00,11.0,9.0,-100.00,NW,312,7.0,19.0,90,-99.99,,,-99.99,,2013-04-09 10:32:00,
2013-04-09 04:42:00,11.0,9.0,-100.00,NW,311,5.0,10.0,90,-99.99,,,-99.99,,2013-04-09 10:42:00,
2013-04-09 04:53:00,11.0,9.0,-100.00,NW,311,5.0,10.0,90,-99.99,,,-99.99,,2013-04-09 10:53:00,
2013-04-09 05:02:00,11.0,9.0,-100.00,WNW,282,4.0,8.0,90,-99.99,,,-99.99,,2013-04-09 11:02:00,
2013-04-09 05:12:00,11.0,9.0,-100.00,West,278,4.0,9.0,89,-99.99,,,-99.99,,2013-04-09 11:12:00,
2013-04-09 05:22:00,11.0,9.0,-100.00,West,278,4.0,9.0,89,-99.99,,,-99.99,,2013-04-09 11:22:00,
2013-04-09 05:32:00,11.0,9.0,-100.00,West,278,4.0,9.0,89,-99.99,,,-99.99,,2013-04-09 11:32:00,
2013-04-09 05:42:00,11.0,9.0,-100.00,West,274,6.0,10.0,89,-99.99,,,-99.99,,2013-04-09 11:42:00,
2013-04-09 05:52:00,11.0,9.0,-100.00,West,274,6.0,10.0,89,-99.99,,,-99.99,,2013-04-09 11:52:00,
2013-04-09 06:02:00,12.0,9.0,-100.00,West,275,4.0,9.0,89,-99.99,,,-99.99,,2013-04-09 12:02:00,
2013-04-09 06:12:00,12.0,9.0,-100.00,West,268,6.0,10.0,89,-99.99,,,-99.99,,2013-04-09 12:12:00,
2013-04-09 06:22:00,12.0,9.0,-100.00,West,268,6.0,10.0,89,-99.99,,,-99.99,,2013-04-09 12:22:00,
2013-04-09 06:32:00,12.0,9.0,-100.00,West,268,6.0,10.0,89,-99.99,,,-99.99,,2013-04-09 12:32:00,
2013-04-09 06:42:00,12.0,9.0,-100.00,West,267,5.0,10.0,89,-99.99,,,-99.99,,2013-04-09 12:42:00,
2013-04-09 06:53:00,12.0,9.0,-100.00,West,267,5.0,10.0,89,-99.99,,,-99.99,,2013-04-09 12:53:00,
2013-04-09 07:02:00,12.0,9.0,-100.00,West,270,5.0,8.0,89,-99.99,,,-99.99,,2013-04-09 13:02:00,
2013-04-09 07:12:00,12.0,9.0,-100.00,West,278,4.0,7.0,89,-99.99,,,-99.99,,2013-04-09 13:12:00,
2013-04-09 07:22:00,12.0,9.0,-100.00,West,278,4.0,7.0,89,-99.99,,,-99.99,,2013-04-09 13:22:00,
2013-04-09 07:32:00,12.0,9.0,-100.00,West,278,4.0,7.0,89,-99.99,,,-99.99,,2013-04-09 13:32:00,
2013-04-09 07:42:00,11.0,8.0,-100.00,WNW,298,5.0,9.0,89,-99.99,,,-99.99,,2013-04-09 13:42:00,
2013-04-09 07:53:00,11.0,8.0,-100.00,WNW,298,5.0,9.0,89,-99.99,,,-99.99,,2013-04-09 13:53:00,
2013-04-09 08:02:00,11.0,8.0,-100.00,WNW,299,5.0,9.0,89,-99.99,,,-99.99,,2013-04-09 14:02:00,
2013-04-09 08:12:00,11.0,8.0,-100.00,WNW,299,4.0,8.0,88,-99.99,,,-99.99,,2013-04-09 14:12:00,
2013-04-09 08:22:00,11.0,8.0,-100.00,WNW,299,4.0,8.0,88,-99.99,,,-99.99,,2013-04-09 14:22:00,
2013-04-09 08:32:00,11.0,8.0,-100.00,WNW,299,4.0,8.0,88,-99.99,,,-99.99,,2013-04-09 14:32:00,
2013-04-09 08:42:00,11.0,8.0,-100.00,NW,306,5.0,11.0,88,-99.99,,,-99.99,,2013-04-09 14:42:00,
2013-04-09 08:52:00,11.0,8.0,-100.00,NW,306,5.0,11.0,88,-99.99,,,-99.99,,2013-04-09 14:52:00,
2013-04-09 09:02:00,11.0,8.0,-100.00,WNW,300,5.0,15.0,88,-99.99,,,-99.99,,2013-04-09 15:02:00,
2013-04-09 09:12:00,11.0,8.0,-100.00,NW,304,4.0,10.0,88,-99.99,,,-99.99,,2013-04-09 15:12:00,
2013-04-09 09:22:00,11.0,8.0,-100.00,NW,304,4.0,10.0,88,-99.99,,,-99.99,,2013-04-09 15:22:00,
2013-04-09 09:33:00,11.0,8.0,-100.00,NW,304,4.0,10.0,88,-99.99,,,-99.99,,2013-04-09 15:33:00,
2013-04-09 09:42:00,11.0,8.0,-100.00,NW,314,5.0,14.0,88,-99.99,,,-99.99,,2013-04-09 15:42:00,
2013-04-09 09:53:00,11.0,8.0,-100.00,NW,314,5.0,14.0,88,-99.99,,,-99.99,,2013-04-09 15:53:00,
2013-04-09 10:03:00,11.0,8.0,-100.00,NW,314,5.0,14.0,88,-99.99,,,-99.99,,2013-04-09 16:03:00,
2013-04-09 10:12:00,12.0,9.0,-100.00,NW,320,5.0,11.0,87,-99.99,,,-99.99,,2013-04-09 16:12:00,
2013-04-09 10:23:00,12.0,9.0,-100.00,NW,320,5.0,11.0,87,-99.99,,,-99.99,,2013-04-09 16:23:00,
2013-04-09 10:33:00,12.0,9.0,-100.00,NW,320,5.0,11.0,87,-99.99,,,-99.99,,2013-04-09 16:33:00,
2013-04-09 10:42:00,12.0,9.0,-100.00,WNW,293,5.0,14.0,87,-99.99,,,-99.99,,2013-04-09 16:42:00,
2013-04-09 10:53:00,12.0,9.0,-100.00,WNW,293,5.0,14.0,87,-99.99,,,-99.99,,2013-04-09 16:53:00,
2013-04-09 11:02:00,12.0,9.0,-100.00,WNW,293,5.0,14.0,87,-99.99,,,-99.99,,2013-04-09 17:02:00,
2013-04-09 11:12:00,12.0,9.0,-100.00,WNW,299,6.0,12.0,86,-99.99,,,-99.99,,2013-04-09 17:12:00,
2013-04-09 11:22:00,12.0,9.0,-100.00,WNW,299,6.0,12.0,86,-99.99,,,-99.99,,2013-04-09 17:22:00,
2013-04-09 11:32:00,12.0,9.0,-100.00,WNW,299,6.0,12.0,86,-99.99,,,-99.99,,2013-04-09 17:32:00,
2013-04-09 11:42:00,12.0,9.0,-100.00,NW,309,6.0,15.0,86,-99.99,,,-99.99,,2013-04-09 17:42:00,
2013-04-09 11:54:00,12.0,9.0,-100.00,NW,309,6.0,15.0,86,-99.99,,,-99.99,,2013-04-09 17:54:00,
2013-04-09 12:02:00,14.0,11.0,-100.00,WNW,300,4.0,10.0,87,-99.99,,,-99.99,,2013-04-09 18:02:00,
2013-04-09 12:12:00,14.0,11.0,-100.00,WNW,302,4.0,11.0,86,-99.99,,,-99.99,,2013-04-09 18:12:00,
2013-04-09 12:22:00,14.0,11.0,-100.00,WNW,302,4.0,11.0,86,-99.99,,,-99.99,,2013-04-09 18:22:00,
2013-04-09 12:30:00,15.0,11.0,-100.00,West,277,4.0,12.0,83,-99.99,,,-99.99,,2013-04-09 18:30:00,
2013-04-09 12:32:00,14.0,11.0,-100.00,WNW,302,4.0,11.0,86,-99.99,,,-99.99,,2013-04-09 18:32:00,
2013-04-09 12:42:00,15.0,11.0,-100.00,WNW,282,4.0,10.0,84,-99.99,,,-99.99,,2013-04-09 18:42:00,
2013-04-09 12:53:00,15.0,11.0,-100.00,WNW,282,4.0,10.0,84,-99.99,,,-99.99,,2013-04-09 18:53:00,
2013-04-09 13:02:00,15.0,11.0,-100.00,WNW,282,4.0,10.0,84,-99.99,,,-99.99,,2013-04-09 19:02:00,
2013-04-09 13:11:00,15.0,11.0,-100.00,WNW,282,4.0,10.0,84,-99.99,,,-99.99,,2013-04-09 19:11:00,
2013-04-09 13:22:00,15.0,11.0,-100.00,West,277,4.0,12.0,83,-99.99,,,-99.99,,2013-04-09 19:22:00,
2013-04-09 13:52:00,16.0,12.0,-100.00,West,276,6.0,14.0,81,-99.99,,,-99.99,,2013-04-09 19:52:00,
2013-04-09 14:02:00,17.0,12.0,-100.00,West,275,6.0,15.0,81,-99.99,,,-99.99,,2013-04-09 20:02:00,
2013-04-09 14:12:00,17.0,12.0,-100.00,WNW,282,6.0,15.0,80,-99.99,,,-99.99,,2013-04-09 20:12:00,
2013-04-09 14:22:00,17.0,12.0,-100.00,WNW,282,6.0,15.0,80,-99.99,,,-99.99,,2013-04-09 20:22:00,
2013-04-09 14:32:00,17.0,12.0,-100.00,WNW,282,6.0,15.0,80,-99.99,,,-99.99,,2013-04-09 20:32:00,
2013-04-09 14:42:00,18.0,13.0,-100.00,WNW,302,5.0,15.0,80,-99.99,,,-99.99,,2013-04-09 20:42:00,
2013-04-09 14:52:00,18.0,13.0,-100.00,WNW,302,5.0,15.0,80,-99.99,,,-99.99,,2013-04-09 20:52:00,
2013-04-09 15:02:00,18.0,13.0,-100.00,NW,310,5.0,14.0,80,-99.99,,,-99.99,,2013-04-09 21:02:00,
2013-04-09 15:12:00,18.0,13.0,-100.00,NW,310,5.0,14.0,80,-99.99,,,-99.99,,2013-04-09 21:12:00,
2013-04-09 15:22:00,18.0,13.0,-100.00,NW,310,5.0,14.0,80,-99.99,,,-99.99,,2013-04-09 21:22:00,
2013-04-09 15:32:00,18.0,13.0,-100.00,NW,315,6.0,17.0,79,-99.99,,,-99.99,,2013-04-09 21:32:00,
2013-04-09 15:42:00,18.0,13.0,-100.00,NW,315,6.0,17.0,79,-99.99,,,-99.99,,2013-04-09 21:42:00,
2013-04-09 15:53:00,19.0,13.0,-100.00,WNW,297,4.0,16.0,79,-99.99,,,-99.99,,2013-04-09 21:53:00,
2013-04-09 16:03:00,19.0,13.0,-100.00,NW,306,7.0,19.0,77,-99.99,,,-99.99,,2013-04-09 22:03:00,
2013-04-09 16:12:00,18.0,12.0,-100.00,NW,314,8.0,20.0,75,-99.99,,,-99.99,,2013-04-09 22:12:00,
2013-04-09 16:23:00,18.0,12.0,-100.00,NW,314,8.0,20.0,75,-99.99,,,-99.99,,2013-04-09 22:23:00,
2013-04-09 16:32:00,18.0,12.0,-100.00,NW,314,8.0,20.0,75,-99.99,,,-99.99,,2013-04-09 22:32:00,
2013-04-09 16:42:00,18.0,12.0,-100.00,WNW,302,6.0,15.0,76,-99.99,,,-99.99,,2013-04-09 22:42:00,
2013-04-09 16:53:00,18.0,12.0,-100.00,WNW,302,6.0,15.0,76,-99.99,,,-99.99,,2013-04-09 22:53:00,
2013-04-09 17:02:00,19.0,12.0,-100.00,WNW,298,5.0,15.0,73,-99.99,,,-99.99,,2013-04-09 23:02:00,
2013-04-09 17:12:00,20.0,13.0,-100.00,WNW,302,7.0,16.0,72,-99.99,,,-99.99,,2013-04-09 23:12:00,
2013-04-09 17:22:00,20.0,13.0,-100.00,WNW,302,7.0,16.0,72,-99.99,,,-99.99,,2013-04-09 23:22:00,
2013-04-09 17:30:00,21.0,12.0,-100.00,NW,304,9.0,21.0,68,-99.99,,,-99.99,,2013-04-09 23:30:00,
2013-04-09 17:32:00,20.0,13.0,-100.00,WNW,302,7.0,16.0,72,-99.99,,,-99.99,,2013-04-09 23:32:00,
2013-04-09 17:42:00,21.0,13.0,-100.00,NW,313,7.0,20.0,70,-99.99,,,-99.99,,2013-04-09 23:42:00,
2013-04-09 17:53:00,21.0,13.0,-100.00,NW,313,7.0,20.0,70,-99.99,,,-99.99,,2013-04-09 23:53:00,
2013-04-09 18:03:00,21.0,12.0,-100.00,NW,304,9.0,21.0,68,-99.99,,,-99.99,,2013-04-10 00:03:00,
2013-04-09 18:11:00,21.0,12.0,-100.00,NW,304,9.0,21.0,68,-99.99,,,-99.99,,2013-04-10 00:11:00,
2013-04-09 18:22:00,21.0,12.0,-100.00,NW,304,9.0,21.0,68,-99.99,,,-99.99,,2013-04-10 00:22:00,
2013-04-09 18:43:00,20.0,10.0,-100.00,NW,319,9.0,20.0,64,-99.99,,,-99.99,,2013-04-10 00:43:00,
2013-04-09 18:52:00,20.0,10.0,-100.00,NW,319,9.0,20.0,64,-99.99,,,-99.99,,2013-04-10 00:52:00,
2013-04-09 19:02:00,20.0,11.0,-100.00,WNW,295,8.0,19.0,66,-99.99,,,-99.99,,2013-04-10 01:02:00,
2013-04-09 19:12:00,19.0,11.0,-100.00,WNW,300,8.0,18.0,68,-99.99,,,-99.99,,2013-04-10 01:12:00,
2013-04-09 19:22:00,19.0,11.0,-100.00,WNW,300,8.0,18.0,68,-99.99,,,-99.99,,2013-04-10 01:22:00,
2013-04-09 19:31:00,19.0,11.0,-100.00,WNW,300,8.0,18.0,68,-99.99,,,-99.99,,2013-04-10 01:31:00,
2013-04-09 19:42:00,18.0,11.0,-100.00,NW,305,8.0,18.0,72,-99.99,,,-99.99,,2013-04-10 01:42:00,
2013-04-09 19:53:00,18.0,11.0,-100.00,NW,305,8.0,18.0,72,-99.99,,,-99.99,,2013-04-10 01:53:00,
2013-04-09 20:02:00,17.0,10.0,-100.00,WNW,286,6.0,13.0,72,-99.99,,,-99.99,,2013-04-10 02:02:00,
2013-04-09 20:12:00,17.0,9.0,-100.00,WNW,296,6.0,16.0,71,-99.99,,,-99.99,,2013-04-10 02:12:00,
2013-04-09 20:22:00,17.0,9.0,-100.00,WNW,296,6.0,16.0,71,-99.99,,,-99.99,,2013-04-10 02:22:00,
2013-04-09 20:32:00,17.0,9.0,-100.00,WNW,296,6.0,16.0,71,-99.99,,,-99.99,,2013-04-10 02:32:00,
2013-04-09 20:42:00,16.0,9.0,-100.00,NW,312,8.0,15.0,74,-99.99,,,-99.99,,2013-04-10 02:42:00,
2013-04-09 20:52:00,16.0,9.0,-100.00,NW,312,8.0,15.0,74,-99.99,,,-99.99,,2013-04-10 02:52:00,
2013-04-09 21:02:00,15.0,9.0,-100.00,NW,306,7.0,16.0,75,-99.99,,,-99.99,,2013-04-10 03:02:00,
2013-04-09 21:12:00,14.0,9.0,-100.00,WNW,294,6.0,12.0,77,-99.99,,,-99.99,,2013-04-10 03:12:00,
2013-04-09 21:22:00,14.0,9.0,-100.00,WNW,294,6.0,12.0,77,-99.99,,,-99.99,,2013-04-10 03:22:00,
2013-04-09 21:32:00,14.0,9.0,-100.00,WNW,294,6.0,12.0,77,-99.99,,,-99.99,,2013-04-10 03:32:00,
2013-04-09 21:43:00,15.0,8.0,-100.00,WNW,288,8.0,15.0,73,-99.99,,,-99.99,,2013-04-10 03:43:00,
2013-04-09 21:53:00,15.0,8.0,-100.00,WNW,288,8.0,15.0,73,-99.99,,,-99.99,,2013-04-10 03:53:00,
2013-04-09 22:03:00,15.0,8.0,-100.00,WNW,288,8.0,15.0,73,-99.99,,,-99.99,,2013-04-10 04:03:00,
2013-04-09 22:13:00,16.0,7.0,-100.00,West,280,8.0,19.0,68,-99.99,,,-99.99,,2013-04-10 04:13:00,
2013-04-09 22:23:00,16.0,7.0,-100.00,West,280,8.0,19.0,68,-99.99,,,-99.99,,2013-04-10 04:23:00,
2013-04-09 22:33:00,16.0,7.0,-100.00,West,280,8.0,19.0,68,-99.99,,,-99.99,,2013-04-10 04:33:00,
2013-04-09 22:42:00,15.0,9.0,-100.00,WNW,292,7.0,14.0,75,-99.99,,,-99.99,,2013-04-10 04:42:00,
2013-04-09 22:53:00,15.0,9.0,-100.00,WNW,292,7.0,14.0,75,-99.99,,,-99.99,,2013-04-10 04:53:00,
2013-04-09 23:02:00,15.0,9.0,-100.00,WNW,283,8.0,13.0,74,-99.99,,,-99.99,,2013-04-10 05:02:00,
2013-04-09 23:12:00,16.0,9.0,-100.00,West,277,7.0,17.0,71,-99.99,,,-99.99,,2013-04-10 05:12:00,
2013-04-09 23:22:00,16.0,9.0,-100.00,West,277,7.0,17.0,71,-99.99,,,-99.99,,2013-04-10 05:22:00,
2013-04-09 23:32:00,16.0,9.0,-100.00,West,277,7.0,17.0,71,-99.99,,,-99.99,,2013-04-10 05:32:00,
2013-04-09 23:42:00,17.0,9.0,-100.00,NW,307,8.0,19.0,67,-99.99,,,-99.99,,2013-04-10 05:42:00,
2013-04-09 23:53:00,17.0,9.0,-100.00,NW,307,8.0,19.0,67,-99.99,,,-99.99,,2013-04-10 05:53:00,